Location: *
(46.1866°S, 178.5290°W)
Time: 10:58:01
(UTC+00:00)

Meteor 2-21 - Pass Details

Date: 19 May 2021
Orbit: 935 x 966 km, 82.5° (Epoch: 15 June)

Event Time Altitude Azimuth Distance (km) Brightness Sun altitude
Rises 06:09:52 0° 356° (N) 3,648 7.7 -17.4°
Reaches altitude 10° 06:12:21 10° 357° (N) 2,709 7.0 -17.8°
Maximum altitude 06:18:34 82° 83° (E) 990 4.4 -18.9°
Drops below altitude 10° 06:24:51 10° 169° (S) 2,730 6.7 -20.0°
Sets 06:27:22 0° 170° (S) 3,679 7.3 -20.4°
